[[{"header":{"parameterUnit":"m.s-1","parameterCategory":1,"la1":30.2991,"la2":30.254,"lo1":-89.0895,"lo2":-89.0444,"dy":0.0017,"dx":0.0017,"nx":28,"ny":28,"refTime":"2025-08-05T21:00:00:Z","depth":0,"parameterNumber":2,"parameterNumberName":"U-component_of_WINDS"},"data":[0,0,0,0,0,0,0,0,0,0,0,0,0,0,0,0,0,0,0,0,0,0,0,0,0,0,0,0,0,0,0,0,0,0,0,0,0,0,0,0,0,0,0,0,0,0,0,0,0,0,0,0,0,0,0,0,0,0,-1.531,-1.531,0,-1.5366,-1.5367,-1.5367,-1.5376,-1.5375,-1.5375,-1.5374,-1.5429,-1.5431,-1.5433,0,0,0,0,0,0,0,0,0,0,0,0,0,-1.5206,-1.5208,-1.531,-1.531,-1.5311,-1.5366,-1.5367,-1.5368,-1.5376,-1.5375,-1.5374,-1.5374,-1.5428,-1.543,-1.5433,0,0,0,0,0,0,0,0,0,0,0,0,0,-1.5256,-1.5209,-1.531,-1.5322,-1.5324,-1.5366,-1.5367,-1.5368,-1.5376,-1.5375,-1.5374,-1.5373,-1.5427,-1.543,-1.5433,-1.5466,0,0,-1.5442,-1.5443,0,0,0,0,0,0,0,0,-1.5253,-1.5259,-1.5319,-1.5321,-1.5323,-1.5363,-1.535,-1.5401,-1.5376,-1.5356,-1.5374,-1.5373,-1.5407,-1.5412,-1.5424,-1.5469,-1.5471,-1.5442,-1.5444,-1.5445,-1.5446,0,0,0,0,0,0,0,-1.5249,-1.5257,-1.5332,-1.532,-1.5322,-1.5324,-1.533,-1.536,-1.5385,-1.5358,-1.5358,-1.5365,-1.5408,-1.5421,-1.5425,-1.5472,-1.5442,-1.5445,-1.5446,-1.5448,-1.5546,-1.5546,0,0,0,0,0,0,-1.5244,-1.5254,-1.533,-1.5334,-1.5285,-1.5326,-1.5333,-1.5351,-1.5385,-1.5389,-1.5366,-1.5365,-1.5417,-1.5422,-1.5427,-1.5467,-1.5445,-1.5448,-1.545,-1.5545,-1.5546,-1.5547,0,0,0,0,0,0,-1.5242,-1.5251,-1.5328,-1.5294,-1.5304,-1.5329,-1.5349,-1.5352,-1.5366,-1.5391,-1.5395,-1.5374,-1.5416,-1.5423,-1.5456,-1.5469,-1.5449,-1.5452,-1.5544,-1.5545,-1.5546,-1.5548,0,0,0,0,0,0,-1.5239,-1.525,-1.5264,-1.5294,-1.5306,-1.5357,-1.535,-1.5354,-1.5371,-1.5371,-1.54,-1.5404,-1.5416,-1.5452,-1.5459,-1.5473,-1.5454,-1.5543,-1.5544,-1.5546,-1.5547,-1.555,-1.5552,0,0,0,0,0,-1.5235,-1.5261,-1.5264,-1.5273,-1.5323,-1.5358,-1.5364,-1.5378,-1.5372,-1.5385,-1.5401,-1.5404,-1.5467,-1.5455,-1.5464,-1.5478,-1.5542,-1.5544,-1.5546,-1.5546,-1.5549,-1.5552,0,0,0,0,0,0,-1.523,-1.5266,-1.5269,-1.5307,-1.5329,-1.5359,-1.5376,-1.5381,-1.5405,-1.5404,-1.5419,-1.5425,-1.5458,-1.5472,-1.5458,-1.5512,-1.5504,-1.5507,-1.5501,-1.5504,-1.5507,-1.5502,-1.5456,0,0,0,0,0,-1.5234,-1.526,-1.5289,-1.5319,-1.533,-1.5351,-1.5367,-1.5376,-1.5399,-1.5409,-1.5427,-1.5449,-1.5474,-1.549,-1.5515,-1.555,-1.5555,-1.5564,-1.5566,-1.5568,-1.557,-1.5589,-1.5592,-1.5553,-1.5553,-1.5553,0,0,-1.5241,-1.5264,-1.5279,-1.5319,-1.5337,-1.5363,-1.5359,-1.5387,-1.5405,-1.5413,-1.5445,-1.546,-1.5485,-1.5519,-1.5535,-1.5532,-1.5583,-1.557,-1.5571,-1.5573,-1.5591,-1.5595,-1.5598,-1.5554,-1.5554,-1.5554,0,0,-1.5267,-1.5287,-1.5314,-1.5333,-1.5361,-1.5375,-1.5382,-1.5411,-1.5421,-1.5454,-1.546,-1.5482,-1.5525,-1.5543,-1.5557,-1.559,-1.5592,-1.5597,-1.5608,-1.5626,-1.5629,-1.5632,-1.5642,-1.5645,-1.56,-1.56,-1.56,0,-1.5272,-1.5311,-1.5327,-1.5354,-1.5371,-1.538,-1.5406,-1.5423,-1.5458,-1.5469,-1.5465,-1.5519,-1.5537,-1.5574,-1.5582,-1.5594,-1.5601,-1.5593,-1.5627,-1.563,-1.5633,-1.5643,-1.5647,-1.56,-1.56,-1.56,-1.56,0,-1.5315,-1.5342,-1.536,-1.5394,-1.5413,-1.544,-1.5459,-1.5476,-1.5483,-1.5497,-1.553,-1.5552,-1.558,-1.559,-1.5597,-1.5629,-1.5626,-1.5624,-1.5616,-1.5637,-1.5646,-1.565,-1.5601,-1.5601,-1.5601,-1.56,0,0,-1.5338,-1.5381,-1.5387,-1.5403,-1.5435,-1.5456,-1.5482,-1.5511,-1.5525,-1.5549,-1.557,-1.5607,-1.5606,-1.5622,-1.5631,-1.5647,-1.567,-1.5644,-1.5644,-1.5647,-1.5704,-1.5704,-1.5708,-1.5672,-1.5673,-1.5673,-1.5702,0,-1.5367,-1.5415,-1.543,-1.5471,-1.5495,-1.5504,-1.5527,-1.5549,-1.5562,-1.5584,-1.5599,-1.5624,-1.5622,-1.5632,-1.5648,-1.5663,-1.5681,-1.5662,-1.5691,-1.5692,-1.5683,-1.5713,-1.5713,-1.5739,-1.5705,-1.5706,-1.5707,0,-1.5406,-1.5431,-1.5474,-1.5503,-1.5514,-1.5534,-1.5561,-1.5583,-1.5607,-1.5616,-1.5635,-1.5643,-1.5669,-1.5661,-1.5697,-1.5684,-1.5697,-1.5706,-1.5707,-1.571,-1.5699,-1.5715,-1.5747,-1.5751,-1.5713,-1.5712,-1.5712,0,-1.5417,-1.5462,-1.5493,-1.5506,-1.5541,-1.5555,-1.5569,-1.5593,-1.5609,-1.5633,-1.5643,-1.567,-1.5684,-1.5703,-1.5717,-1.571,-1.5752,-1.5745,-1.5759,-1.5758,-1.5766,-1.5765,-1.58,-1.5777,-1.5776,-1.5776,-1.5776,0,-1.5447,-1.5472,-1.5498,-1.5517,-1.5546,-1.5563,-1.559,-1.5605,-1.5626,-1.5647,-1.5657,-1.5676,-1.5695,-1.5716,-1.5728,-1.5755,-1.5762,-1.5769,-1.5771,-1.5767,-1.5766,-1.5775,-1.5773,-1.5777,-1.5777,-1.5777,-1.5777,0,-1.5463,-1.5482,-1.5517,-1.5547,-1.5555,-1.5574,-1.56,-1.5618,-1.5632,-1.5659,-1.5666,-1.5688,-1.5714,-1.5731,-1.5763,-1.5771,-1.5801,-1.5803,-1.5793,-1.5794,-1.5806,-1.5804,-1.5846,-1.5852,-1.5826,-1.5826,-1.5827,0,-1.548,-1.55,-1.5533,-1.5548,-1.5563,-1.5588,-1.5605,-1.5622,-1.5638,-1.5668,-1.5682,-1.5709,-1.5731,-1.5772,-1.579,-1.5815,-1.5817,-1.583,-1.5821,-1.5816,-1.5816,-1.5814,-1.5815,-1.5831,-1.5831,-1.5832,-1.5832,0,-1.5508,-1.5516,-1.554,-1.5568,-1.5588,-1.561,-1.5632,-1.5644,-1.5665,-1.5683,-1.571,-1.5727,-1.5761,-1.5787,-1.5814,-1.5828,-1.5833,-1.5835,-1.5839,-1.5835,-1.5827,-1.583,-1.5795,-1.5833,-1.5833,-1.5833,-1.5833,-1.5833,-1.5524,-1.5542,-1.5567,-1.5594,-1.5613,-1.5633,-1.5652,-1.5669,-1.5692,-1.5721,-1.573,-1.5758,-1.5781,-1.5817,-1.5832,-1.5853,-1.5851,-1.5858,-1.5859,-1.586,-1.586,-1.5825,-1.5858,-1.5858,-1.5858,-1.5858,-1.5858,0,-1.5551,-1.5568,-1.5592,-1.5623,-1.5644,-1.5649,-1.5673,-1.569,-1.5715,-1.5736,-1.5758,-1.5789,-1.5814,-1.5834,-1.586,-1.5873,-1.5876,-1.5879,-1.5878,-1.588,-1.586,-1.5854,-1.5876,-1.5876,-1.5876,-1.5876,-1.5876,-1.5876,-1.5567,-1.5597,-1.5609,-1.5648,-1.5664,-1.5692,-1.5706,-1.5725,-1.5742,-1.5776,-1.5797,-1.5811,-1.5832,-1.5859,-1.5882,-1.5887,-1.5896,-1.5898,-1.5904,-1.5884,-1.5882,-1.588,-1.5874,-1.59,-1.59,-1.5922,-1.5922,-1.5922]},{"header":{"parameterUnit":"m.s-1","parameterCategory":1,"la1":30.2991,"la2":30.254,"lo1":-89.0895,"lo2":-89.0444,"dy":0.0017,"dx":0.0017,"nx":28,"ny":28,"refTime":"2025-08-05T21:00:00:Z","depth":0,"parameterNumber":3,"parameterNumberName":"V-component_of_WINDS"},"data":[0,0,0,0,0,0,0,0,0,0,0,0,0,0,0,0,0,0,0,0,0,0,0,0,0,0,0,0,0,0,0,0,0,0,0,0,0,0,0,0,0,0,0,0,0,0,0,0,0,0,0,0,0,0,0,0,0,0,0.2155,0.2155,0,0.215,0.215,0.215,0.2126,0.2125,0.2125,0.2124,0.2119,0.212,0.212,0,0,0,0,0,0,0,0,0,0,0,0,0,0.2144,0.2144,0.2155,0.2155,0.2154,0.215,0.215,0.215,0.2126,0.2125,0.2125,0.2124,0.2119,0.212,0.212,0,0,0,0,0,0,0,0,0,0,0,0,0,0.2145,0.2144,0.2155,0.2142,0.2141,0.215,0.215,0.215,0.2126,0.2125,0.2124,0.2124,0.2119,0.212,0.212,0.2141,0,0,0.2122,0.2122,0,0,0,0,0,0,0,0,0.2145,0.2145,0.2144,0.2143,0.2142,0.2138,0.2144,0.2147,0.2126,0.2132,0.2124,0.2123,0.2126,0.2126,0.2127,0.2141,0.214,0.2122,0.2122,0.2123,0.2123,0,0,0,0,0,0,0,0.2145,0.2145,0.2153,0.2144,0.2143,0.2137,0.2136,0.2145,0.2134,0.2131,0.2129,0.2129,0.2125,0.2127,0.2127,0.214,0.2122,0.2123,0.2123,0.2123,0.2171,0.2172,0,0,0,0,0,0,0.2146,0.2145,0.2153,0.2152,0.2141,0.2138,0.2137,0.214,0.2134,0.2132,0.213,0.2128,0.2126,0.2126,0.2126,0.215,0.2123,0.2123,0.2124,0.217,0.2171,0.2172,0,0,0,0,0,0,0.2146,0.2147,0.2153,0.2149,0.2149,0.2139,0.2142,0.214,0.2141,0.2133,0.2131,0.2133,0.2125,0.2126,0.2137,0.215,0.2124,0.2124,0.2169,0.217,0.2172,0.2198,0,0,0,0,0,0,0.2146,0.2147,0.2155,0.2149,0.2149,0.2164,0.2143,0.2141,0.2142,0.214,0.2135,0.2133,0.2125,0.2137,0.2138,0.215,0.2125,0.2168,0.217,0.2171,0.2196,0.22,0.2204,0,0,0,0,0,0.2146,0.2162,0.2155,0.2156,0.2158,0.2165,0.2165,0.2154,0.2143,0.2151,0.2146,0.2134,0.2148,0.2138,0.2139,0.2152,0.2167,0.2169,0.2171,0.2194,0.2199,0.2203,0,0,0,0,0,0,0.217,0.2161,0.2153,0.2169,0.2168,0.2161,0.217,0.216,0.2162,0.216,0.2147,0.2146,0.216,0.2157,0.2146,0.2172,0.2156,0.2158,0.2173,0.2177,0.2181,0.2181,0.2125,0,0,0,0,0,0.2177,0.2183,0.2175,0.2189,0.2189,0.218,0.2182,0.2174,0.2173,0.2172,0.2167,0.2167,0.2171,0.2174,0.2178,0.2196,0.2194,0.2205,0.2209,0.2212,0.2214,0.2223,0.2228,0.2179,0.2179,0.2179,0,0,0.2192,0.2188,0.2192,0.2194,0.2192,0.2199,0.2179,0.2187,0.2192,0.2173,0.2184,0.2181,0.2179,0.2194,0.2201,0.2192,0.2227,0.2214,0.2217,0.2217,0.2226,0.2231,0.2235,0.218,0.218,0.218,0,0,0.2222,0.2219,0.2231,0.223,0.2228,0.2221,0.2224,0.2219,0.2216,0.2227,0.2213,0.2219,0.2227,0.2226,0.2227,0.2258,0.2247,0.2259,0.2279,0.2288,0.2292,0.2296,0.2307,0.2311,0.2261,0.2262,0.2262,0,0.224,0.2249,0.2238,0.2247,0.2248,0.2232,0.2244,0.2243,0.2242,0.2244,0.2235,0.2245,0.2242,0.2257,0.2265,0.2266,0.2269,0.2259,0.2293,0.2296,0.2299,0.2309,0.2313,0.2263,0.2263,0.2263,0.2263,0,0.2272,0.2279,0.2289,0.2288,0.2291,0.2301,0.2292,0.2296,0.2288,0.2283,0.2294,0.2291,0.2294,0.2297,0.2289,0.2311,0.2306,0.2295,0.2278,0.2305,0.2315,0.2319,0.2265,0.2265,0.2264,0.2264,0,0,0.2317,0.2311,0.2314,0.2314,0.2311,0.2316,0.2326,0.2329,0.2332,0.2333,0.234,0.2348,0.2338,0.2339,0.2331,0.2339,0.2364,0.2328,0.2327,0.2334,0.2388,0.2396,0.2401,0.2357,0.2358,0.2359,0.2388,0,0.2345,0.2361,0.2352,0.237,0.2376,0.2361,0.237,0.2369,0.2364,0.2369,0.2364,0.237,0.2356,0.2357,0.2364,0.236,0.2375,0.2357,0.2365,0.2365,0.2365,0.2406,0.2414,0.2442,0.2392,0.2392,0.2393,0,0.238,0.2382,0.2401,0.2397,0.2399,0.2407,0.2409,0.2414,0.2413,0.2409,0.241,0.2401,0.241,0.2395,0.2408,0.2396,0.2399,0.2397,0.2398,0.2398,0.238,0.2406,0.245,0.2455,0.2399,0.2398,0.2398,0,0.2411,0.2418,0.243,0.2431,0.2426,0.2432,0.2431,0.2429,0.2431,0.2433,0.2435,0.2438,0.244,0.2442,0.2434,0.2423,0.2448,0.2432,0.2446,0.2446,0.2451,0.2451,0.2496,0.2453,0.2453,0.2453,0.2453,0,0.2444,0.2455,0.2444,0.2451,0.2464,0.2453,0.2467,0.2463,0.2462,0.2469,0.2456,0.2463,0.2451,0.2457,0.2451,0.2462,0.2463,0.2461,0.2459,0.2462,0.2462,0.2463,0.246,0.2454,0.2454,0.2454,0.2454,0,0.2479,0.2472,0.2484,0.2479,0.2479,0.2488,0.2484,0.2491,0.2486,0.2495,0.2496,0.2489,0.2494,0.2486,0.2492,0.2487,0.2504,0.2499,0.2504,0.2502,0.2516,0.2515,0.2563,0.2569,0.2523,0.2524,0.2524,0,0.2501,0.2509,0.2506,0.2509,0.2509,0.2515,0.2517,0.2507,0.2511,0.2511,0.2517,0.2522,0.2525,0.2536,0.2531,0.2534,0.253,0.2546,0.253,0.2533,0.253,0.2529,0.253,0.2549,0.255,0.255,0.2551,0,0.2539,0.2535,0.2539,0.2543,0.2546,0.2548,0.2549,0.2553,0.2543,0.2547,0.2553,0.2556,0.2561,0.2566,0.2569,0.2567,0.2557,0.2556,0.2559,0.2562,0.2565,0.2563,0.2513,0.2555,0.2554,0.2554,0.2554,0.2554,0.2568,0.2575,0.2574,0.2579,0.2579,0.258,0.2587,0.2583,0.2588,0.2591,0.2585,0.2593,0.2592,0.2595,0.2594,0.26,0.2593,0.2598,0.2599,0.26,0.2602,0.2564,0.2601,0.2601,0.2601,0.26,0.26,0,0.2605,0.2604,0.2609,0.2611,0.2615,0.2606,0.2607,0.2611,0.2618,0.2618,0.2622,0.2629,0.2634,0.263,0.2634,0.2639,0.2635,0.2641,0.264,0.264,0.2609,0.2605,0.2644,0.2644,0.2644,0.2644,0.2644,0.2644,0.2625,0.2637,0.2633,0.2645,0.2644,0.2651,0.2652,0.2654,0.2654,0.2662,0.2666,0.2664,0.2662,0.2666,0.267,0.2669,0.2671,0.2678,0.2675,0.2646,0.2642,0.2638,0.2635,0.2679,0.2679,0.2706,0.2706,0.2706]}]]